Torna al catalogo

STARLINK-11149

AttivoComunicazioniVLEO
NORAD 60041·PAYLOAD·🇺🇸 United States

Lanciato Jun 8, 2024 da Vandenberg Space Force Base

Loading…

Prossimi Passaggi (prossime 24 ore)

TLE

AggiornatoSource: CelesTrak SupGP

Epoca: Sep 14, 2026, 21:42 UTC

1 60041C 24112D   26257.90465278  .00084321  00000+0  69444-3 0  2578
2 60041  53.1568  53.6676 0001091  81.4341  47.5896 15.69672292    15

Traccia STARLINK-11149 in tempo reale con AllMySat

Download on the App Store